Location: Peterborough
(44.3091°N, 78.3197°W)
Time: 01:28:36
(UTC-04:00)

Vanguard 2 Rocket - Pass Details

Date: 28 March 2023
Orbit: 554 x 3314 km, 32.9° (Epoch: 02 June)

Event Time Altitude Azimuth Distance (km) Brightness Sun altitude
Rises 21:49:08 0° 253° (WSW) 3,677 10.6 -23.4°
Reaches altitude 10° 21:51:26 10° 245° (WSW) 2,984 9.9 -23.8°
Maximum altitude 21:58:26 42° 177° (S) 2,141 8.4 -24.9°
Enters shadow 22:01:04 37° 147° (SSE) 2,539 8.6 -25.2°
